Time,TemperatureF,DewpointF,PressureIn,WindDirection,WindDirectionDegrees,WindSpeedMPH,WindSpeedGustMPH,Humidity,HourlyPrecipIn,Conditions,Clouds,dailyrainin,SoftwareType,DateUTC
2013-08-21 00:04:00,68.7,61.2,30.05,East,90,0.0,0.0,77,0.00,,,0.00,meteohub,2013-08-21 05:04:00,
2013-08-21 00:09:00,68.5,61.7,30.05,East,90,0.0,0.0,79,0.00,,,0.00,meteohub,2013-08-21 05:09:00,
2013-08-21 00:15:00,68.5,61.7,30.05,East,90,0.0,0.0,79,0.00,,,0.00,meteohub,2013-08-21 05:15:00,
2013-08-21 00:20:00,68.4,61.9,30.05,East,90,0.0,0.0,80,0.00,,,0.00,meteohub,2013-08-21 05:20:00,
2013-08-21 00:25:00,68.2,61.3,30.05,East,90,0.0,0.0,79,0.00,,,0.00,meteohub,2013-08-21 05:25:00,
2013-08-21 00:30:00,68.2,61.7,30.05,East,90,0.0,0.0,80,0.00,,,0.00,meteohub,2013-08-21 05:30:00,
2013-08-21 00:35:00,68.0,61.5,30.05,East,90,0.0,0.0,80,0.00,,,0.00,meteohub,2013-08-21 05:35:00,
2013-08-21 00:40:00,68.0,61.9,30.05,East,90,0.0,0.0,81,0.00,,,0.00,meteohub,2013-08-21 05:40:00,
2013-08-21 00:45:00,68.0,61.9,30.05,East,90,0.0,0.0,81,0.00,,,0.00,meteohub,2013-08-21 05:45:00,
2013-08-21 00:50:00,67.8,62.1,30.05,East,90,0.0,0.0,82,0.00,,,0.00,meteohub,2013-08-21 05:50:00,
2013-08-21 00:55:00,67.8,61.7,30.05,East,90,0.0,0.0,81,0.00,,,0.00,meteohub,2013-08-21 05:55:00,
2013-08-21 01:00:00,67.6,61.5,30.05,East,90,0.0,0.0,81,0.00,,,0.00,meteohub,2013-08-21 06:00:00,
2013-08-21 01:05:00,67.6,61.5,30.05,East,90,0.0,0.0,81,0.00,,,0.00,meteohub,2013-08-21 06:05:00,
2013-08-21 01:10:00,67.5,61.7,30.05,East,90,0.0,0.0,82,0.00,,,0.00,meteohub,2013-08-21 06:10:00,
2013-08-21 01:15:00,67.5,61.7,30.05,East,90,0.0,0.0,82,0.00,,,0.00,meteohub,2013-08-21 06:15:00,
2013-08-21 01:20:00,67.3,61.5,30.05,East,90,0.0,0.0,82,0.00,,,0.00,meteohub,2013-08-21 06:20:00,
2013-08-21 01:25:00,67.3,61.5,30.05,East,90,0.0,0.0,82,0.00,,,0.00,meteohub,2013-08-21 06:25:00,
2013-08-21 01:30:00,67.1,61.3,30.05,East,90,0.0,0.0,82,0.00,,,0.00,meteohub,2013-08-21 06:30:00,
2013-08-21 01:35:00,67.1,61.7,30.05,East,90,0.0,0.0,83,0.00,,,0.00,meteohub,2013-08-21 06:35:00,
2013-08-21 01:40:00,67.1,61.3,30.05,East,90,0.0,0.0,82,0.00,,,0.00,meteohub,2013-08-21 06:40:00,
2013-08-21 01:46:00,67.1,61.7,30.05,East,90,0.0,0.0,83,0.00,,,0.00,meteohub,2013-08-21 06:46:00,
2013-08-21 01:51:00,66.9,61.9,30.02,East,90,0.0,0.0,84,0.00,,,0.00,meteohub,2013-08-21 06:51:00,
2013-08-21 01:56:00,66.9,61.5,30.02,East,90,0.0,0.0,83,0.00,,,0.00,meteohub,2013-08-21 06:56:00,
2013-08-21 02:01:00,66.7,61.3,30.02,East,90,0.0,0.0,83,0.00,,,0.00,meteohub,2013-08-21 07:01:00,
2013-08-21 02:06:00,66.7,61.7,30.05,East,90,0.0,0.0,84,0.00,,,0.00,meteohub,2013-08-21 07:06:00,
2013-08-21 02:11:00,66.6,61.5,30.05,East,90,0.0,0.0,84,0.00,,,0.00,meteohub,2013-08-21 07:11:00,
2013-08-21 02:16:00,66.6,61.9,30.05,East,90,0.0,0.0,85,0.00,,,0.00,meteohub,2013-08-21 07:16:00,
2013-08-21 02:21:00,66.4,61.3,30.02,SW,225,0.0,0.0,84,0.00,,,0.00,meteohub,2013-08-21 07:21:00,
2013-08-21 02:26:00,66.2,61.2,30.02,SW,225,0.0,0.0,84,0.00,,,0.00,meteohub,2013-08-21 07:26:00,
2013-08-21 02:31:00,66.2,61.2,30.02,SW,225,0.0,0.0,84,0.00,,,0.00,meteohub,2013-08-21 07:31:00,
2013-08-21 02:36:00,66.2,61.5,30.05,West,270,0.0,0.0,85,0.00,,,0.00,meteohub,2013-08-21 07:36:00,
2013-08-21 02:41:00,66.2,61.5,30.05,West,270,0.0,0.0,85,0.00,,,0.00,meteohub,2013-08-21 07:41:00,
2013-08-21 02:46:00,66.2,61.5,30.05,SW,225,0.0,0.0,85,0.00,,,0.00,meteohub,2013-08-21 07:46:00,
2013-08-21 02:51:00,66.0,61.3,30.05,SW,225,0.0,0.0,85,0.00,,,0.00,meteohub,2013-08-21 07:51:00,
2013-08-21 02:56:00,66.0,61.3,30.05,SW,225,0.0,0.0,85,0.00,,,0.00,meteohub,2013-08-21 07:56:00,
2013-08-21 03:01:00,65.8,61.2,30.05,ENE,68,0.0,0.0,85,0.00,,,0.00,meteohub,2013-08-21 08:01:00,
2013-08-21 03:06:00,65.8,61.5,30.02,ENE,68,0.0,0.0,86,0.00,,,0.00,meteohub,2013-08-21 08:06:00,
2013-08-21 03:11:00,65.8,61.5,30.02,ENE,68,0.0,0.0,86,0.00,,,0.00,meteohub,2013-08-21 08:11:00,
2013-08-21 03:16:00,65.7,61.3,30.02,ENE,68,0.0,0.0,86,0.00,,,0.00,meteohub,2013-08-21 08:16:00,
2013-08-21 03:21:00,65.7,61.0,30.05,ENE,68,0.0,0.0,85,0.00,,,0.00,meteohub,2013-08-21 08:21:00,
2013-08-21 03:26:00,65.5,61.2,30.05,ENE,68,0.0,0.0,86,0.00,,,0.00,meteohub,2013-08-21 08:26:00,
2013-08-21 03:32:00,65.5,61.2,30.05,ENE,68,0.0,0.0,86,0.00,,,0.00,meteohub,2013-08-21 08:32:00,
2013-08-21 03:37:00,65.3,61.0,30.02,ENE,68,0.0,0.0,86,0.00,,,0.00,meteohub,2013-08-21 08:37:00,
2013-08-21 03:42:00,65.3,61.0,30.02,ENE,68,0.0,0.0,86,0.00,,,0.00,meteohub,2013-08-21 08:42:00,
2013-08-21 03:47:00,65.3,61.0,30.02,ENE,68,0.0,0.0,86,0.00,,,0.00,meteohub,2013-08-21 08:47:00,
2013-08-21 03:52:00,65.1,60.8,30.05,SSW,202,0.0,0.0,86,0.00,,,0.00,meteohub,2013-08-21 08:52:00,
2013-08-21 03:57:00,64.9,60.6,30.05,SSW,202,0.0,0.0,86,0.00,,,0.00,meteohub,2013-08-21 08:57:00,
2013-08-21 04:02:00,64.9,61.0,30.05,SSW,202,0.0,0.0,87,0.00,,,0.00,meteohub,2013-08-21 09:02:00,
2013-08-21 04:07:00,64.8,60.4,30.05,SSW,202,0.0,0.0,86,0.00,,,0.00,meteohub,2013-08-21 09:07:00,
2013-08-21 04:12:00,64.8,60.8,30.05,East,90,0.0,0.0,87,0.00,,,0.00,meteohub,2013-08-21 09:12:00,
2013-08-21 04:17:00,64.9,61.0,30.05,East,90,0.0,0.0,87,0.00,,,0.00,meteohub,2013-08-21 09:17:00,
2013-08-21 04:22:00,64.9,61.0,30.05,East,90,0.0,0.0,87,0.00,,,0.00,meteohub,2013-08-21 09:22:00,
2013-08-21 04:27:00,64.9,61.3,30.05,East,90,0.0,0.0,88,0.00,,,0.00,meteohub,2013-08-21 09:27:00,
2013-08-21 04:32:00,64.9,61.0,30.05,East,90,0.0,0.0,87,0.00,,,0.00,meteohub,2013-08-21 09:32:00,
2013-08-21 04:37:00,64.9,61.0,30.05,ENE,68,0.0,0.0,87,0.00,,,0.00,meteohub,2013-08-21 09:37:00,
2013-08-21 04:42:00,64.9,61.3,30.05,NE,45,0.0,0.0,88,0.00,,,0.00,meteohub,2013-08-21 09:42:00,
2013-08-21 04:47:00,64.9,61.0,30.05,NE,45,0.0,0.0,87,0.00,,,0.00,meteohub,2013-08-21 09:47:00,
2013-08-21 04:52:00,64.9,61.3,30.05,NE,45,0.0,0.0,88,0.00,,,0.00,meteohub,2013-08-21 09:52:00,
2013-08-21 04:57:00,64.8,61.2,30.05,NE,45,0.0,0.0,88,0.00,,,0.00,meteohub,2013-08-21 09:57:00,
2013-08-21 05:02:00,64.8,61.2,30.05,NE,45,0.0,0.0,88,0.00,,,0.00,meteohub,2013-08-21 10:02:00,
2013-08-21 05:07:00,64.6,61.0,30.05,ENE,68,0.0,0.0,88,0.00,,,0.00,meteohub,2013-08-21 10:07:00,
2013-08-21 05:12:00,64.6,60.6,30.05,ENE,68,0.0,0.0,87,0.00,,,0.00,meteohub,2013-08-21 10:12:00,
2013-08-21 05:17:00,64.4,60.8,30.05,ENE,68,0.0,0.0,88,0.00,,,0.00,meteohub,2013-08-21 10:17:00,
2013-08-21 05:22:00,64.4,60.8,30.05,ENE,68,0.0,0.0,88,0.00,,,0.00,meteohub,2013-08-21 10:22:00,
2013-08-21 05:27:00,64.2,60.6,30.05,ENE,68,0.0,0.0,88,0.00,,,0.00,meteohub,2013-08-21 10:27:00,
2013-08-21 05:32:00,64.2,60.6,30.05,ENE,68,0.0,0.0,88,0.00,,,0.00,meteohub,2013-08-21 10:32:00,
2013-08-21 05:37:00,64.2,60.6,30.05,ENE,68,0.0,0.0,88,0.00,,,0.00,meteohub,2013-08-21 10:37:00,
2013-08-21 05:42:00,64.2,60.6,30.05,ENE,68,0.0,0.0,88,0.00,,,0.00,meteohub,2013-08-21 10:42:00,
2013-08-21 05:47:00,64.0,60.4,30.05,ENE,68,0.0,0.0,88,0.00,,,0.00,meteohub,2013-08-21 10:47:00,
2013-08-21 05:52:00,64.0,60.4,30.08,ENE,68,0.0,0.0,88,0.00,,,0.00,meteohub,2013-08-21 10:52:00,
2013-08-21 05:57:00,63.9,60.3,30.08,ENE,68,0.0,0.0,88,0.00,,,0.00,meteohub,2013-08-21 10:57:00,
2013-08-21 06:02:00,63.9,60.6,30.08,ENE,68,0.0,0.0,89,0.00,,,0.00,meteohub,2013-08-21 11:02:00,
2013-08-21 06:07:00,63.9,60.6,30.08,ENE,68,0.0,0.0,89,0.00,,,0.00,meteohub,2013-08-21 11:07:00,
2013-08-21 06:12:00,63.9,60.6,30.08,ENE,68,0.0,0.0,89,0.00,,,0.00,meteohub,2013-08-21 11:12:00,
2013-08-21 06:17:00,64.0,60.8,30.08,ENE,68,0.0,0.0,89,0.00,,,0.00,meteohub,2013-08-21 11:17:00,
2013-08-21 06:22:00,64.2,61.0,30.05,ENE,68,0.0,0.0,89,0.00,,,0.00,meteohub,2013-08-21 11:22:00,
2013-08-21 06:27:00,64.2,61.2,30.05,ENE,68,0.0,0.0,90,0.00,,,0.00,meteohub,2013-08-21 11:27:00,
2013-08-21 06:32:00,64.4,61.2,30.05,ENE,68,0.0,0.0,89,0.00,,,0.00,meteohub,2013-08-21 11:32:00,
2013-08-21 06:37:00,64.6,61.3,30.08,ENE,68,0.0,0.0,89,0.00,,,0.00,meteohub,2013-08-21 11:37:00,
2013-08-21 06:42:00,64.8,61.5,30.08,ENE,68,0.0,0.0,89,0.00,,,0.00,meteohub,2013-08-21 11:42:00,
2013-08-21 06:47:00,64.8,61.5,30.08,South,180,0.0,0.0,89,0.00,,,0.00,meteohub,2013-08-21 11:47:00,
2013-08-21 06:52:00,64.9,61.9,30.08,South,180,0.0,0.0,90,0.00,,,0.00,meteohub,2013-08-21 11:52:00,
2013-08-21 06:57:00,65.1,62.1,30.08,South,180,0.0,0.0,90,0.00,,,0.00,meteohub,2013-08-21 11:57:00,
2013-08-21 07:02:00,65.5,62.4,30.08,South,180,0.0,0.0,90,0.00,,,0.00,meteohub,2013-08-21 12:02:00,
2013-08-21 07:07:00,65.7,62.6,30.08,South,180,0.0,0.0,90,0.00,,,0.00,meteohub,2013-08-21 12:07:00,
2013-08-21 07:12:00,66.0,63.3,30.08,South,180,0.0,0.0,91,0.00,,,0.00,meteohub,2013-08-21 12:12:00,
2013-08-21 07:17:00,66.4,63.7,30.08,South,180,0.0,0.0,91,0.00,,,0.00,meteohub,2013-08-21 12:17:00,
2013-08-21 07:22:00,66.7,64.0,30.11,South,180,0.0,0.0,91,0.00,,,0.00,meteohub,2013-08-21 12:22:00,
2013-08-21 07:27:00,67.3,64.6,30.11,South,180,0.0,0.0,91,0.00,,,0.00,meteohub,2013-08-21 12:27:00,
2013-08-21 07:32:00,67.6,64.9,30.11,SSE,158,0.0,0.0,91,0.00,,,0.00,meteohub,2013-08-21 12:32:00,
2013-08-21 07:37:00,68.2,65.1,30.11,SE,135,0.0,0.0,90,0.00,,,0.00,meteohub,2013-08-21 12:37:00,
2013-08-21 07:42:00,68.2,65.1,30.11,SSE,158,0.0,0.0,90,0.00,,,0.00,meteohub,2013-08-21 12:42:00,
2013-08-21 07:47:00,68.9,65.5,30.11,SSW,202,0.0,0.0,89,0.00,,,0.00,meteohub,2013-08-21 12:47:00,
2013-08-21 07:52:00,69.4,66.0,30.11,SSW,202,0.0,0.0,89,0.00,,,0.00,meteohub,2013-08-21 12:52:00,
2013-08-21 07:57:00,69.6,65.8,30.11,SW,225,0.0,1.0,88,0.00,,,0.00,meteohub,2013-08-21 12:57:00,
2013-08-21 08:02:00,70.0,66.2,30.11,SW,225,0.0,1.0,88,0.00,,,0.00,meteohub,2013-08-21 13:02:00,
2013-08-21 08:07:00,70.5,66.2,30.08,SSE,158,0.0,1.0,86,0.00,,,0.00,meteohub,2013-08-21 13:07:00,
2013-08-21 08:12:00,71.1,66.4,30.08,South,180,1.0,1.0,85,0.00,,,0.00,meteohub,2013-08-21 13:12:00,
2013-08-21 08:17:00,71.8,66.7,30.08,SW,225,0.0,3.0,84,0.00,,,0.00,meteohub,2013-08-21 13:17:00,
2013-08-21 08:22:00,72.5,67.1,30.11,SW,225,3.0,3.0,83,0.00,,,0.00,meteohub,2013-08-21 13:22:00,
2013-08-21 08:27:00,73.2,66.7,30.11,South,180,0.0,3.0,80,0.00,,,0.00,meteohub,2013-08-21 13:27:00,
2013-08-21 08:32:00,73.6,67.1,30.11,SE,135,0.0,3.0,80,0.00,,,0.00,meteohub,2013-08-21 13:32:00,
2013-08-21 08:37:00,73.9,67.1,30.11,South,180,0.0,3.0,79,0.00,,,0.00,meteohub,2013-08-21 13:37:00,
2013-08-21 08:42:00,74.5,66.7,30.11,SW,225,0.0,2.0,77,0.00,,,0.00,meteohub,2013-08-21 13:42:00,
2013-08-21 08:47:00,74.7,66.9,30.11,East,90,0.0,2.0,77,0.00,,,0.00,meteohub,2013-08-21 13:47:00,
2013-08-21 08:52:00,74.7,66.2,30.11,East,90,0.0,1.0,75,0.00,,,0.00,meteohub,2013-08-21 13:52:00,
2013-08-21 08:57:00,74.8,66.4,30.11,SE,135,0.0,0.0,75,0.00,,,0.00,meteohub,2013-08-21 13:57:00,
2013-08-21 09:02:00,75.4,66.9,30.11,SE,135,0.0,0.0,75,0.00,,,0.00,meteohub,2013-08-21 14:02:00,
2013-08-21 09:07:00,75.7,67.3,30.11,ENE,68,0.0,1.0,75,0.00,,,0.00,meteohub,2013-08-21 14:07:00,
2013-08-21 09:12:00,76.3,66.9,30.11,NNW,338,0.0,1.0,73,0.00,,,0.00,meteohub,2013-08-21 14:12:00,
2013-08-21 09:17:00,76.5,66.7,30.11,SE,135,1.0,2.0,72,0.00,,,0.00,meteohub,2013-08-21 14:17:00,
2013-08-21 09:22:00,76.1,65.7,30.11,East,90,0.0,2.0,70,0.00,,,0.00,meteohub,2013-08-21 14:22:00,
2013-08-21 09:27:00,75.9,65.5,30.11,ESE,112,0.0,2.0,70,0.00,,,0.00,meteohub,2013-08-21 14:27:00,
2013-08-21 09:32:00,75.9,65.5,30.11,SE,135,0.0,2.0,70,0.00,,,0.00,meteohub,2013-08-21 14:32:00,
2013-08-21 09:37:00,75.7,65.3,30.11,SE,135,0.0,2.0,70,0.00,,,0.00,meteohub,2013-08-21 14:37:00,
2013-08-21 09:42:00,75.7,65.3,30.11,South,180,0.0,2.0,70,0.00,,,0.00,meteohub,2013-08-21 14:42:00,
2013-08-21 09:47:00,75.9,65.8,30.11,SE,135,0.0,0.0,71,0.00,,,0.00,meteohub,2013-08-21 14:47:00,
2013-08-21 09:52:00,76.1,66.0,30.11,SE,135,0.0,0.0,71,0.00,,,0.00,meteohub,2013-08-21 14:52:00,
2013-08-21 09:57:00,76.6,66.9,30.11,South,180,1.0,0.0,72,0.00,,,0.00,meteohub,2013-08-21 14:57:00,
2013-08-21 10:02:00,77.0,66.9,30.11,SSW,202,0.0,0.0,71,0.00,,,0.00,meteohub,2013-08-21 15:02:00,
2013-08-21 10:07:00,77.4,66.7,30.11,SW,225,0.0,2.0,70,0.00,,,0.00,meteohub,2013-08-21 15:07:00,
2013-08-21 10:12:00,77.4,66.0,30.11,SSE,158,0.0,2.0,68,0.00,,,0.00,meteohub,2013-08-21 15:12:00,
2013-08-21 10:17:00,77.5,66.2,30.11,SSW,202,0.0,2.0,68,0.00,,,0.00,meteohub,2013-08-21 15:17:00,
2013-08-21 10:23:00,77.7,65.8,30.11,South,180,2.0,2.0,67,0.00,,,0.00,meteohub,2013-08-21 15:23:00,
2013-08-21 10:28:00,78.1,65.3,30.11,WSW,248,0.0,4.0,65,0.00,,,0.00,meteohub,2013-08-21 15:28:00,
2013-08-21 10:33:00,78.3,66.0,30.11,South,180,0.0,4.0,66,0.00,,,0.00,meteohub,2013-08-21 15:33:00,
2013-08-21 10:38:00,79.2,66.4,30.11,SE,135,0.0,4.0,65,0.00,,,0.00,meteohub,2013-08-21 15:38:00,
2013-08-21 10:43:00,79.3,65.7,30.11,SSE,158,0.0,4.0,63,0.00,,,0.00,meteohub,2013-08-21 15:43:00,
2013-08-21 10:48:00,79.9,66.6,30.11,East,90,2.0,4.0,64,0.00,,,0.00,meteohub,2013-08-21 15:48:00,
2013-08-21 10:53:00,80.8,66.9,30.11,East,90,0.0,4.0,63,0.00,,,0.00,meteohub,2013-08-21 15:53:00,
2013-08-21 10:58:00,81.3,66.6,30.11,North,0,3.0,3.0,61,0.00,,,0.00,meteohub,2013-08-21 15:58:00,
2013-08-21 11:03:00,81.9,66.6,30.11,SE,135,0.0,3.0,60,0.00,,,0.00,meteohub,2013-08-21 16:03:00,
2013-08-21 11:08:00,82.0,66.7,30.11,ENE,68,0.0,4.0,60,0.00,,,0.00,meteohub,2013-08-21 16:08:00,
2013-08-21 11:13:00,82.2,66.9,30.11,NNE,22,1.0,4.0,60,0.00,,,0.00,meteohub,2013-08-21 16:13:00,
2013-08-21 11:18:00,82.4,66.6,30.11,SW,225,0.0,4.0,59,0.00,,,0.00,meteohub,2013-08-21 16:18:00,
2013-08-21 11:23:00,82.4,66.2,30.08,SSW,202,1.0,3.0,58,0.00,,,0.00,meteohub,2013-08-21 16:23:00,
2013-08-21 11:28:00,82.4,65.7,30.08,SW,225,0.0,4.0,57,0.00,,,0.00,meteohub,2013-08-21 16:28:00,
2013-08-21 11:33:00,82.6,65.8,30.08,South,180,0.0,5.0,57,0.00,,,0.00,meteohub,2013-08-21 16:33:00,
2013-08-21 11:38:00,82.9,66.2,30.08,East,90,0.0,5.0,57,0.00,,,0.00,meteohub,2013-08-21 16:38:00,
2013-08-21 11:43:00,83.1,66.7,30.08,SW,225,3.0,5.0,58,0.00,,,0.00,meteohub,2013-08-21 16:43:00,
2013-08-21 11:48:00,83.5,65.7,30.08,SW,225,0.0,4.0,55,0.00,,,0.00,meteohub,2013-08-21 16:48:00,
2013-08-21 11:53:00,83.7,65.8,30.08,North,0,2.0,5.0,55,0.00,,,0.00,meteohub,2013-08-21 16:53:00,
2013-08-21 11:58:00,83.5,64.0,30.08,NW,315,0.0,5.0,52,0.00,,,0.00,meteohub,2013-08-21 16:58:00,
2013-08-21 12:04:00,83.8,66.0,30.08,ESE,112,0.0,4.0,55,0.00,,,0.00,meteohub,2013-08-21 17:04:00,
2013-08-21 12:09:00,84.0,66.0,30.05,South,180,0.0,2.0,55,0.00,,,0.00,meteohub,2013-08-21 17:09:00,
2013-08-21 12:14:00,84.6,67.1,30.05,SSW,202,1.0,5.0,56,0.00,,,0.00,meteohub,2013-08-21 17:14:00,
2013-08-21 12:19:00,84.9,66.4,30.05,SW,225,1.0,5.0,54,0.00,,,0.00,meteohub,2013-08-21 17:19:00,
2013-08-21 12:24:00,85.3,67.3,30.02,East,90,3.0,5.0,55,0.00,,,0.00,meteohub,2013-08-21 17:24:00,
2013-08-21 12:29:00,85.6,66.6,30.02,East,90,2.0,4.0,53,0.00,,,0.00,meteohub,2013-08-21 17:29:00,
2013-08-21 12:34:00,85.5,64.8,30.02,ENE,68,0.0,3.0,50,0.00,,,0.00,meteohub,2013-08-21 17:34:00,
2013-08-21 12:39:00,85.6,66.0,30.05,South,180,3.0,3.0,52,0.00,,,0.00,meteohub,2013-08-21 17:39:00,
2013-08-21 12:44:00,85.6,64.2,30.05,East,90,0.0,3.0,49,0.00,,,0.00,meteohub,2013-08-21 17:44:00,
2013-08-21 12:49:00,86.0,65.1,30.05,SSE,158,0.0,3.0,50,0.00,,,0.00,meteohub,2013-08-21 17:49:00,
2013-08-21 12:54:00,85.6,64.2,30.05,SSE,158,0.0,3.0,49,0.00,,,0.00,meteohub,2013-08-21 17:54:00,
2013-08-21 12:59:00,85.6,65.5,30.05,South,180,0.0,4.0,51,0.00,,,0.00,meteohub,2013-08-21 17:59:00,
2013-08-21 13:04:00,85.8,65.7,30.05,East,90,0.0,4.0,51,0.00,,,0.00,meteohub,2013-08-21 18:04:00,
2013-08-21 13:09:00,86.4,66.0,30.05,East,90,0.0,3.0,51,0.00,,,0.00,meteohub,2013-08-21 18:09:00,
2013-08-21 13:14:00,86.7,66.4,30.05,SW,225,3.0,3.0,51,0.00,,,0.00,meteohub,2013-08-21 18:14:00,
2013-08-21 13:19:00,86.2,65.3,30.05,East,90,0.0,3.0,50,0.00,,,0.00,meteohub,2013-08-21 18:19:00,
2013-08-21 13:24:00,85.8,64.9,30.02,SSE,158,0.0,4.0,50,0.00,,,0.00,meteohub,2013-08-21 18:24:00,
2013-08-21 13:29:00,85.8,66.2,30.02,SE,135,2.0,4.0,52,0.00,,,0.00,meteohub,2013-08-21 18:29:00,
2013-08-21 13:34:00,85.3,64.6,30.02,SE,135,1.0,4.0,50,0.00,,,0.00,meteohub,2013-08-21 18:34:00,
2013-08-21 13:39:00,84.9,64.8,30.02,SE,135,0.0,4.0,51,0.00,,,0.00,meteohub,2013-08-21 18:39:00,
2013-08-21 13:44:00,84.6,64.9,30.02,South,180,1.0,2.0,52,0.00,,,0.00,meteohub,2013-08-21 18:44:00,
2013-08-21 13:50:00,84.2,65.1,30.02,WSW,248,0.0,2.0,53,0.00,,,0.00,meteohub,2013-08-21 18:50:00,
2013-08-21 13:55:00,83.7,64.8,30.02,SSE,158,0.0,3.0,53,0.00,,,0.00,meteohub,2013-08-21 18:55:00,
2013-08-21 14:00:00,83.1,64.8,30.02,SW,225,0.0,3.0,54,0.00,,,0.00,meteohub,2013-08-21 19:00:00,
2013-08-21 14:05:00,82.6,64.2,30.02,North,0,1.0,3.0,54,0.00,,,0.00,meteohub,2013-08-21 19:05:00,
2013-08-21 14:10:00,82.0,64.2,30.02,South,180,3.0,3.0,55,0.00,,,0.00,meteohub,2013-08-21 19:10:00,
2013-08-21 14:15:00,81.7,64.4,30.02,SE,135,3.0,3.0,56,0.00,,,0.00,meteohub,2013-08-21 19:15:00,
2013-08-21 14:20:00,81.5,64.8,30.02,South,180,0.0,3.0,57,0.00,,,0.00,meteohub,2013-08-21 19:20:00,
2013-08-21 14:25:00,81.1,64.9,29.99,South,180,0.0,3.0,58,0.00,,,0.00,meteohub,2013-08-21 19:25:00,
2013-08-21 14:30:00,81.1,65.5,29.99,ESE,112,0.0,0.0,59,0.00,,,0.00,meteohub,2013-08-21 19:30:00,
2013-08-21 14:35:00,81.0,65.3,29.99,South,180,0.0,0.0,59,0.00,,,0.00,meteohub,2013-08-21 19:35:00,
2013-08-21 14:40:00,81.0,66.2,29.99,SW,225,0.0,0.0,61,0.00,,,0.00,meteohub,2013-08-21 19:40:00,
2013-08-21 14:45:00,80.6,65.8,29.99,South,180,0.0,0.0,61,0.00,,,0.00,meteohub,2013-08-21 19:45:00,
2013-08-21 14:50:00,80.6,65.8,29.99,South,180,0.0,0.0,61,0.00,,,0.00,meteohub,2013-08-21 19:50:00,
2013-08-21 14:55:00,80.6,66.4,29.99,South,180,0.0,2.0,62,0.00,,,0.00,meteohub,2013-08-21 19:55:00,
2013-08-21 15:00:00,80.6,66.9,29.99,South,180,0.0,2.0,63,0.00,,,0.00,meteohub,2013-08-21 20:00:00,
2013-08-21 15:05:00,80.4,66.2,29.99,SW,225,1.0,2.0,62,0.00,,,0.00,meteohub,2013-08-21 20:05:00,
2013-08-21 15:10:00,80.4,66.7,30.02,SSW,202,0.0,2.0,63,0.00,,,0.00,meteohub,2013-08-21 20:10:00,
2013-08-21 15:15:00,80.4,66.2,30.02,South,180,0.0,2.0,62,0.00,,,0.00,meteohub,2013-08-21 20:15:00,
2013-08-21 15:20:00,80.4,66.7,30.02,South,180,0.0,2.0,63,0.00,,,0.00,meteohub,2013-08-21 20:20:00,
2013-08-21 15:25:00,80.4,66.7,30.02,South,180,2.0,2.0,63,0.00,,,0.00,meteohub,2013-08-21 20:25:00,
2013-08-21 15:30:00,80.2,66.6,30.02,WSW,248,0.0,2.0,63,0.00,,,0.00,meteohub,2013-08-21 20:30:00,
2013-08-21 15:36:00,80.2,66.6,30.02,SSW,202,0.0,2.0,63,0.00,,,0.00,meteohub,2013-08-21 20:36:00,
2013-08-21 15:41:00,80.2,66.9,29.99,SSW,202,0.0,2.0,64,0.00,,,0.00,meteohub,2013-08-21 20:41:00,
2013-08-21 15:46:00,80.2,66.9,29.99,SE,135,0.0,2.0,64,0.00,,,0.00,meteohub,2013-08-21 20:46:00,
2013-08-21 15:51:00,80.2,66.9,29.99,SSE,158,0.0,0.0,64,0.00,,,0.00,meteohub,2013-08-21 20:51:00,
2013-08-21 15:56:00,80.2,66.9,29.99,South,180,0.0,0.0,64,0.00,,,0.00,meteohub,2013-08-21 20:56:00,
2013-08-21 16:01:00,80.4,67.6,29.99,South,180,0.0,0.0,65,0.00,,,0.00,meteohub,2013-08-21 21:01:00,
2013-08-21 16:06:00,80.6,67.3,29.99,South,180,0.0,2.0,64,0.00,,,0.00,meteohub,2013-08-21 21:06:00,
2013-08-21 16:11:00,80.8,67.5,29.99,WSW,248,0.0,2.0,64,0.00,,,0.00,meteohub,2013-08-21 21:11:00,
2013-08-21 16:16:00,80.8,67.5,29.99,SSW,202,0.0,2.0,64,0.00,,,0.00,meteohub,2013-08-21 21:16:00,
2013-08-21 16:21:00,81.1,67.8,29.99,South,180,0.0,2.0,64,0.00,,,0.00,meteohub,2013-08-21 21:21:00,
2013-08-21 16:26:00,81.7,68.4,29.99,SSE,158,0.0,2.0,64,0.00,,,0.00,meteohub,2013-08-21 21:26:00,
2013-08-21 16:31:00,82.0,68.7,29.99,South,180,0.0,3.0,64,0.00,,,0.00,meteohub,2013-08-21 21:31:00,
2013-08-21 16:36:00,82.2,68.4,29.99,South,180,0.0,3.0,63,0.00,,,0.00,meteohub,2013-08-21 21:36:00,
2013-08-21 16:41:00,82.6,68.7,29.99,SE,135,0.0,3.0,63,0.00,,,0.00,meteohub,2013-08-21 21:41:00,
2013-08-21 16:46:00,82.8,68.9,29.99,SE,135,0.0,2.0,63,0.00,,,0.00,meteohub,2013-08-21 21:46:00,
2013-08-21 16:51:00,82.9,68.5,29.99,ESE,112,1.0,3.0,62,0.00,,,0.00,meteohub,2013-08-21 21:51:00,
2013-08-21 16:56:00,82.6,68.2,29.99,WSW,248,0.0,3.0,62,0.00,,,0.00,meteohub,2013-08-21 21:56:00,
2013-08-21 17:01:00,82.4,67.6,29.99,SSE,158,0.0,3.0,61,0.00,,,0.00,meteohub,2013-08-21 22:01:00,
2013-08-21 17:06:00,81.7,66.9,29.99,SE,135,0.0,2.0,61,0.00,,,0.00,meteohub,2013-08-21 22:06:00,
2013-08-21 17:11:00,81.1,66.4,29.99,SSW,202,0.0,2.0,61,0.00,,,0.00,meteohub,2013-08-21 22:11:00,
2013-08-21 17:16:00,80.6,65.8,29.99,SW,225,3.0,3.0,61,0.00,,,0.00,meteohub,2013-08-21 22:16:00,
2013-08-21 17:22:00,80.1,65.8,29.99,SSW,202,1.0,3.0,62,0.00,,,0.00,meteohub,2013-08-21 22:22:00,
2013-08-21 17:27:00,79.7,66.0,29.99,SSW,202,0.0,3.0,63,0.00,,,0.00,meteohub,2013-08-21 22:27:00,
2013-08-21 17:32:00,79.3,65.1,29.99,SSW,202,0.0,3.0,62,0.00,,,0.00,meteohub,2013-08-21 22:32:00,
2013-08-21 17:37:00,79.0,65.3,30.02,SW,225,0.0,2.0,63,0.00,,,0.00,meteohub,2013-08-21 22:37:00,
2013-08-21 17:42:00,78.6,65.5,30.02,SSW,202,0.0,1.0,64,0.00,,,0.00,meteohub,2013-08-21 22:42:00,
2013-08-21 17:47:00,78.4,65.3,30.02,SW,225,0.0,4.0,64,0.00,,,0.00,meteohub,2013-08-21 22:47:00,
2013-08-21 17:52:00,78.1,62.6,29.99,South,180,2.0,4.0,59,0.00,,,0.00,meteohub,2013-08-21 22:52:00,
2013-08-21 17:57:00,77.9,61.9,29.99,SSW,202,0.0,9.0,58,0.00,,,0.00,meteohub,2013-08-21 22:57:00,
2013-08-21 18:02:00,77.2,59.7,29.99,South,180,6.0,9.0,55,0.00,,,0.00,meteohub,2013-08-21 23:02:00,
2013-08-21 18:07:00,76.6,59.2,30.02,SW,225,0.0,6.0,55,0.00,,,0.00,meteohub,2013-08-21 23:07:00,
2013-08-21 18:12:00,76.5,59.5,30.02,SW,225,0.0,6.0,56,0.00,,,0.00,meteohub,2013-08-21 23:12:00,
2013-08-21 18:17:00,75.9,59.2,30.02,WNW,292,2.0,6.0,56,0.00,,,0.00,meteohub,2013-08-21 23:17:00,
2013-08-21 18:22:00,75.6,58.8,29.99,SW,225,3.0,3.0,56,0.00,,,0.00,meteohub,2013-08-21 23:22:00,
2013-08-21 18:27:00,75.4,59.2,29.99,NNW,338,0.0,4.0,57,0.00,,,0.00,meteohub,2013-08-21 23:27:00,
2013-08-21 18:32:00,75.2,59.0,29.99,NW,315,2.0,4.0,57,0.00,,,0.00,meteohub,2013-08-21 23:32:00,
2013-08-21 18:37:00,74.7,59.4,29.96,SSW,202,0.0,4.0,59,0.00,,,0.00,meteohub,2013-08-21 23:37:00,
2013-08-21 18:42:00,74.3,59.9,29.96,South,180,0.0,2.0,61,0.00,,,0.00,meteohub,2013-08-21 23:42:00,
2013-08-21 18:47:00,73.8,59.9,29.96,NE,45,0.0,3.0,62,0.00,,,0.00,meteohub,2013-08-21 23:47:00,
2013-08-21 18:52:00,73.4,60.1,29.99,NE,45,0.0,3.0,63,0.00,,,0.00,meteohub,2013-08-21 23:52:00,
2013-08-21 18:57:00,72.9,60.4,29.99,NNE,22,0.0,3.0,65,0.00,,,0.00,meteohub,2013-08-21 23:57:00,
2013-08-21 19:02:00,72.7,60.6,29.99,NNE,22,0.0,0.0,66,0.00,,,0.00,meteohub,2013-08-22 00:02:00,
2013-08-21 19:07:00,72.3,60.3,29.96,ENE,68,0.0,0.0,66,0.00,,,0.00,meteohub,2013-08-22 00:07:00,
2013-08-21 19:12:00,72.3,60.8,29.96,ENE,68,0.0,0.0,67,0.00,,,0.00,meteohub,2013-08-22 00:12:00,
2013-08-21 19:17:00,71.8,61.0,29.96,SSW,202,0.0,0.0,69,0.00,,,0.00,meteohub,2013-08-22 00:17:00,
2013-08-21 19:22:00,71.4,61.2,29.99,SSW,202,0.0,2.0,70,0.00,,,0.00,meteohub,2013-08-22 00:22:00,
2013-08-21 19:27:00,71.4,61.2,29.99,South,180,0.0,2.0,70,0.00,,,0.00,meteohub,2013-08-22 00:27:00,
2013-08-21 19:32:00,71.2,61.0,29.99,WSW,248,0.0,2.0,70,0.00,,,0.00,meteohub,2013-08-22 00:32:00,
2013-08-21 19:37:00,71.2,61.0,29.96,South,180,0.0,2.0,70,0.00,,,0.00,meteohub,2013-08-22 00:37:00,
2013-08-21 19:42:00,71.1,60.8,29.96,SW,225,1.0,1.0,70,0.00,,,0.00,meteohub,2013-08-22 00:42:00,
2013-08-21 19:47:00,70.9,60.6,29.96,SSW,202,0.0,2.0,70,0.00,,,0.00,meteohub,2013-08-22 00:47:00,
2013-08-21 19:52:00,70.7,60.4,29.99,SE,135,0.0,2.0,70,0.00,,,0.00,meteohub,2013-08-22 00:52:00,
2013-08-21 19:57:00,70.5,59.9,29.99,South,180,0.0,2.0,69,0.00,,,0.00,meteohub,2013-08-22 00:57:00,
2013-08-21 20:02:00,70.5,59.9,29.99,South,180,0.0,0.0,69,0.00,,,0.00,meteohub,2013-08-22 01:02:00,
2013-08-21 20:07:00,70.3,59.7,29.99,South,180,0.0,0.0,69,0.00,,,0.00,meteohub,2013-08-22 01:07:00,
2013-08-21 20:12:00,70.3,59.7,29.99,South,180,0.0,2.0,69,0.00,,,0.00,meteohub,2013-08-22 01:12:00,
2013-08-21 20:17:00,70.3,59.4,29.99,ESE,112,1.0,2.0,68,0.00,,,0.00,meteohub,2013-08-22 01:17:00,
2013-08-21 20:22:00,70.3,59.4,29.99,North,0,0.0,5.0,68,0.00,,,0.00,meteohub,2013-08-22 01:22:00,
2013-08-21 20:27:00,70.5,59.5,29.99,North,0,0.0,5.0,68,0.00,,,0.00,meteohub,2013-08-22 01:27:00,
2013-08-21 20:32:00,70.5,59.5,29.99,North,0,0.0,5.0,68,0.00,,,0.00,meteohub,2013-08-22 01:32:00,
2013-08-21 20:37:00,70.5,59.5,29.99,NNE,22,0.0,1.0,68,0.00,,,0.00,meteohub,2013-08-22 01:37:00,
2013-08-21 20:42:00,70.5,59.5,29.99,NE,45,0.0,1.0,68,0.00,,,0.00,meteohub,2013-08-22 01:42:00,
2013-08-21 20:47:00,70.3,59.4,29.99,NE,45,0.0,1.0,68,0.00,,,0.00,meteohub,2013-08-22 01:47:00,
2013-08-21 20:52:00,70.2,59.2,29.99,South,180,0.0,0.0,68,0.00,,,0.00,meteohub,2013-08-22 01:52:00,
2013-08-21 20:57:00,70.2,59.2,29.99,South,180,0.0,0.0,68,0.00,,,0.00,meteohub,2013-08-22 01:57:00,
2013-08-21 21:02:00,69.8,59.2,29.99,South,180,0.0,1.0,69,0.00,,,0.00,meteohub,2013-08-22 02:02:00,
2013-08-21 21:07:00,69.6,59.4,29.99,SSW,202,0.0,1.0,70,0.00,,,0.00,meteohub,2013-08-22 02:07:00,
2013-08-21 21:12:00,69.4,59.2,29.99,WSW,248,0.0,1.0,70,0.00,,,0.00,meteohub,2013-08-22 02:12:00,
2013-08-21 21:17:00,69.4,59.7,29.99,NW,315,0.0,1.0,71,0.00,,,0.00,meteohub,2013-08-22 02:17:00,
2013-08-21 21:22:00,69.4,60.1,29.99,NW,315,0.0,1.0,72,0.00,,,0.00,meteohub,2013-08-22 02:22:00,
2013-08-21 21:27:00,69.4,60.1,29.99,NW,315,0.0,0.0,72,0.00,,,0.00,meteohub,2013-08-22 02:27:00,
2013-08-21 21:32:00,69.4,60.1,29.99,NW,315,0.0,0.0,72,0.00,,,0.00,meteohub,2013-08-22 02:32:00,
2013-08-21 21:37:00,69.4,60.4,29.99,North,0,0.0,0.0,73,0.00,,,0.00,meteohub,2013-08-22 02:37:00,
2013-08-21 21:42:00,69.4,60.4,29.99,NNW,338,0.0,0.0,73,0.00,,,0.00,meteohub,2013-08-22 02:42:00,
2013-08-21 21:47:00,69.3,60.3,29.99,NW,315,0.0,0.0,73,0.00,,,0.00,meteohub,2013-08-22 02:47:00,
2013-08-21 21:52:00,69.3,60.6,29.99,NW,315,0.0,0.0,74,0.00,,,0.00,meteohub,2013-08-22 02:52:00,
2013-08-21 21:58:00,69.3,61.0,30.02,WSW,248,0.0,0.0,75,0.00,,,0.00,meteohub,2013-08-22 02:58:00,
2013-08-21 22:03:00,69.1,60.4,30.02,South,180,0.0,0.0,74,0.00,,,0.00,meteohub,2013-08-22 03:03:00,
2013-08-21 22:08:00,68.9,60.6,30.02,NNW,338,0.0,0.0,75,0.00,,,0.00,meteohub,2013-08-22 03:08:00,
2013-08-21 22:13:00,68.7,60.8,30.02,NW,315,0.0,0.0,76,0.00,,,0.00,meteohub,2013-08-22 03:13:00,
2013-08-21 22:18:00,68.7,60.8,30.02,North,0,0.0,0.0,76,0.00,,,0.00,meteohub,2013-08-22 03:18:00,
2013-08-21 22:23:00,68.7,61.2,30.02,NNE,22,0.0,0.0,77,0.00,,,0.00,meteohub,2013-08-22 03:23:00,
2013-08-21 22:28:00,68.5,61.0,30.02,NE,45,0.0,0.0,77,0.00,,,0.00,meteohub,2013-08-22 03:28:00,
2013-08-21 22:33:00,68.5,61.0,30.02,NE,45,0.0,0.0,77,0.00,,,0.00,meteohub,2013-08-22 03:33:00,
2013-08-21 22:38:00,68.5,61.0,30.02,NE,45,0.0,0.0,77,0.00,,,0.00,meteohub,2013-08-22 03:38:00,
2013-08-21 22:43:00,68.4,61.2,30.02,NE,45,0.0,0.0,78,0.00,,,0.00,meteohub,2013-08-22 03:43:00,
2013-08-21 22:48:00,68.4,61.2,30.02,NW,315,0.0,1.0,78,0.00,,,0.00,meteohub,2013-08-22 03:48:00,
2013-08-21 22:53:00,68.4,61.2,30.02,NE,45,0.0,1.0,78,0.00,,,0.00,meteohub,2013-08-22 03:53:00,
2013-08-21 22:58:00,68.2,61.3,30.02,East,90,0.0,0.0,79,0.00,,,0.00,meteohub,2013-08-22 03:58:00,
2013-08-21 23:01:00,68.2,61.3,30.02,SE,135,0.0,0.0,79,0.00,,,0.00,meteohub,2013-08-22 04:01:00,
2013-08-21 23:02:00,68.2,61.3,30.02,SE,135,0.0,0.0,79,0.00,,,0.00,meteohub,2013-08-22 04:02:00,
2013-08-21 23:04:00,68.2,61.3,30.02,South,180,0.0,0.0,79,0.00,,,0.00,meteohub,2013-08-22 04:04:00,
2013-08-21 23:07:00,68.2,61.3,30.02,South,180,0.0,0.0,79,0.00,,,0.00,meteohub,2013-08-22 04:07:00,
2013-08-21 23:12:00,67.8,61.3,30.02,South,180,0.0,0.0,80,0.00,,,0.00,meteohub,2013-08-22 04:12:00,
2013-08-21 23:17:00,67.8,61.3,30.02,SSW,202,0.0,0.0,80,0.00,,,0.00,meteohub,2013-08-22 04:17:00,
2013-08-21 23:22:00,67.8,61.7,30.02,West,270,0.0,0.0,81,0.00,,,0.00,meteohub,2013-08-22 04:22:00,
2013-08-21 23:27:00,67.8,61.7,30.02,SE,135,0.0,0.0,81,0.00,,,0.00,meteohub,2013-08-22 04:27:00,
2013-08-21 23:32:00,67.8,61.7,30.02,SW,225,0.0,0.0,81,0.00,,,0.00,meteohub,2013-08-22 04:32:00,
2013-08-21 23:37:00,68.0,61.9,30.02,SW,225,0.0,0.0,81,0.00,,,0.00,meteohub,2013-08-22 04:37:00,
2013-08-21 23:42:00,68.0,61.9,30.02,SW,225,0.0,0.0,81,0.00,,,0.00,meteohub,2013-08-22 04:42:00,
2013-08-21 23:47:00,68.0,62.2,30.02,South,180,0.0,0.0,82,0.00,,,0.00,meteohub,2013-08-22 04:47:00,
2013-08-21 23:52:00,68.2,62.4,30.02,SW,225,0.0,1.0,82,0.00,,,0.00,meteohub,2013-08-22 04:52:00,
2013-08-21 23:57:00,68.2,62.4,30.02,South,180,0.0,1.0,82,0.00,,,0.00,meteohub,2013-08-22 04:57:00,